Weather in Novo

Russia / Yaroslavl Oblast     57°18′08″N   38°37′07″E
В апреле 2022 года жителям России запретили посещать сайт meteo.paraplan.net по решению Генеральной прокуратуры. Аудитория сайта уменьшилась в 10 раз. Владельцы сайта не видят смысла в поддержке погодного сервера в таких условиях. Сайт будет закрыт в октябре.
temp.,
°C
wind,
m/s
gust,
m/s
humid.,
%
clouds,
%
prec.,
mm/h
press.,
hPa
HPBL,
m
3 october, mon
mon300:00+8ne3797100 0.0 1005292
03:00+8ene51394100 0.3 1002481
06:00+9e61494100 0.6 1000445
09:00+11e71797100 3.5 999643
12:00+14ese61694100 0.3 9981007
15:00+14se71583100 0.7 9971189
18:00+12sse61384100 0.3 9991136
21:00+9sse61483100 0.4 10031287
4 october, tue
tue400:00+9sse61582100 0.2 10041434
03:00+9se7158267 0.3 10061167
06:00+10sse71476100 0.0 10061437
09:00+9sse61481100 0.1 10081384
12:00+12sse71470100 0.3 10081440
15:00+12sse61467100 0.5 10091667
18:00+9ssw4993100 2.4 1010703
21:00+8sse3987100 3.1 1010629
5 october, wed
wed500:00+8sse41085100 0.3 10101087
03:00+8sse4987100 1.3 1010759
06:00+7s3690100 0.3 1010904
09:00+7s3792100 0.9 1011569
12:00+8ssw128385 0.3 1011477
15:00+7w249296 0.8 1012339
18:00+6wsw138999 0.1 1013101
21:00+5wsw249680 0.1 1013138
6 october, thu
thu600:00+6w2593100 0.1 1014278
03:00+6w269466 0.3 1014305
06:00+3wsw249718 0.0 1015100
09:00+6sw239041 0.0 1014226
12:00+7ssw249398 0.0 1014251
15:00+8s3792100 0.0 1013393
18:00+8ssw31098100 0.3 1012412
21:00+9sw31197100 0.3 1011587
7 october, fri
fri700:00+10w4129420 0.9 1011792
03:00+10wnw51078100 1.0 1012869
06:00+8w512877 0.2 1014758
09:00+8wsw51288100 0.2 1015754
12:00+10wsw6138182 0.0 1015933
15:00+12w6137228 0.3 10151404
18:00+10w5127719 0.1 1017838
21:00+8w413855 0.1 1019580